BEIDOU-3 M2 (C20)

Last updated on Fri Aug 21 2026 00:03:33 GMT+0000 (Coordinated Universal Time)

1 43002U 17069B 26231.96967190 -.00000047 00000+0 00000+0 0 9993 2 43002 56.7493 61.0212 0006949 2.4145 357.6402 1.86230756 59785
UTC large
Height (km)
Speed (km/s)
/
Latitude / Longitude
Inclination (degrees)
Orbital Period (minutes)
Azimuth
Elevation
Range (km)
Doppler Factor

Next 0 passes for location: London (51.5072 / 0.1276)

No passes found over London.
BEIDOU-3 M2 (C20)